DLH458 EDDM-KSFO

Flight info

Callsign DLH458
Flight time N/A
Altitude 34000
Route EDDM/26R INPUD Y102 UPALA Z109 BAMAS L604 GASKA DCT MASEK DCT SPY DCT AMGOD DCT MIMVA L602 NALAX L46 ESHIN N110 ERKIT DCT GOMUP/M082F360 NATA LIBOR/M081F380 DCT BERUS/N0477F380 DCT YFB DCT 63N080W 61N090W 57N100W DCT POLLE DCT WALSH/N0457F400 DCT BOI DCT MRRLO BDEGA4
Aircraft A333/H-SDE3GHIJ2J3J5M1RVWXY/LB2D1

Departure

Time 2026-05-07 15:37
Airport Munich Airport (EDDM)

Arrival

Time N/A
Airport San Francisco International Airport (KSFO)
Time Latitude Longitude Altitude Speed Heading
2026-05-07 15:01 48.35411 11.79326 1479 ft 0 kts 270°
2026-05-07 15:20 48.35411 11.79328 1480 ft 4 kts 270°
2026-05-07 15:20 48.35412 11.79356 1479 ft 2 kts 269°
2026-05-07 15:20 48.35412 11.79378 1479 ft 2 kts 271°
2026-05-07 15:20 48.35412 11.79401 1479 ft 2 kts 271°
2026-05-07 15:21 48.35411 11.79423 1479 ft 2 kts 272°
2026-05-07 15:21 48.35410 11.79445 1479 ft 2 kts 297°
2026-05-07 15:21 48.35400 11.79462 1479 ft 2 kts 332°
2026-05-07 15:21 48.35386 11.79469 1479 ft 2 kts 359°
2026-05-07 15:22 48.35371 11.79469 1479 ft 2 kts 356°
2026-05-07 15:22 48.35360 11.79471 1479 ft 0 kts 354°
2026-05-07 15:25 48.35360 11.79470 1479 ft 0 kts 354°
2026-05-07 15:25 48.35386 11.79466 1478 ft 6 kts 353°
2026-05-07 15:25 48.35440 11.79455 1478 ft 8 kts 353°
2026-05-07 15:26 48.35498 11.79459 1478 ft 8 kts 18°
2026-05-07 15:26 48.35556 11.79487 1478 ft 8 kts 12°
2026-05-07 15:26 48.35622 11.79490 1477 ft 11 kts 356°
2026-05-07 15:26 48.35705 11.79478 1476 ft 12 kts 354°
2026-05-07 15:27 48.35781 11.79464 1476 ft 9 kts 354°
2026-05-07 15:27 48.35849 11.79454 1475 ft 9 kts 356°
2026-05-07 15:27 48.35915 11.79484 1475 ft 10 kts 24°
2026-05-07 15:27 48.35991 11.79495 1474 ft 12 kts 354°
2026-05-07 15:28 48.36079 11.79481 1473 ft 12 kts 354°
2026-05-07 15:28 48.36157 11.79468 1472 ft 10 kts 354°
2026-05-07 15:28 48.36205 11.79492 1471 ft 7 kts 52°
2026-05-07 15:28 48.36220 11.79568 1471 ft 8 kts 79°
2026-05-07 15:29 48.36227 11.79654 1470 ft 8 kts 84°
2026-05-07 15:29 48.36238 11.79779 1469 ft 16 kts 83°
2026-05-07 15:29 48.36251 11.79956 1469 ft 17 kts 83°
2026-05-07 15:29 48.36265 11.80142 1467 ft 18 kts 84°
2026-05-07 15:30 48.36278 11.80333 1466 ft 18 kts 83°
2026-05-07 15:30 48.36295 11.80525 1465 ft 18 kts 83°
2026-05-07 15:30 48.36310 11.80722 1464 ft 19 kts 83°
2026-05-07 15:30 48.36326 11.80922 1463 ft 19 kts 84°
2026-05-07 15:31 48.36341 11.81125 1462 ft 19 kts 83°
2026-05-07 15:31 48.36356 11.81331 1461 ft 19 kts 83°
2026-05-07 15:31 48.36372 11.81533 1461 ft 19 kts 83°
2026-05-07 15:31 48.36388 11.81738 1460 ft 19 kts 83°
2026-05-07 15:32 48.36393 11.81920 1460 ft 15 kts 98°
2026-05-07 15:32 48.36396 11.82073 1460 ft 12 kts 83°
2026-05-07 15:32 48.36422 11.82133 1460 ft 6 kts 20°
2026-05-07 15:32 48.36462 11.82133 1460 ft 3 kts 355°
2026-05-07 15:33 48.36474 11.82132 1460 ft 0 kts 355°
2026-05-07 15:35 48.36503 11.82128 1460 ft 11 kts 355°
2026-05-07 15:35 48.36612 11.82108 1459 ft 15 kts 354°
2026-05-07 15:35 48.36682 11.82078 1459 ft 6 kts 299°
2026-05-07 15:36 48.36684 11.82044 1459 ft 0 kts 263°
2026-05-07 15:36 48.36683 11.82033 1459 ft 7 kts 263°
2026-05-07 15:36 48.36653 11.81642 1460 ft 70 kts 264°
2026-05-07 15:36 48.36572 11.80597 1464 ft 129 kts 264°
2026-05-07 15:37 48.36447 11.78980 1479 ft 178 kts 265°
2026-05-07 15:37 48.36317 11.77030 1882 ft 190 kts 266°
2026-05-07 15:37 48.36201 11.75097 2596 ft 189 kts 265°
2026-05-07 15:37 48.36053 11.73130 3306 ft 191 kts 265°
2026-05-07 15:38 48.35891 11.71191 3995 ft 191 kts 265°
2026-05-07 15:38 48.35721 11.69221 4691 ft 190 kts 265°
2026-05-07 15:38 48.35785 11.67290 5256 ft 190 kts 295°
2026-05-07 15:38 48.36619 11.65822 5855 ft 189 kts 334°
2026-05-07 15:39 48.37884 11.65347 6442 ft 190 kts 351°
2026-05-07 15:39 48.39180 11.65002 6998 ft 191 kts 346°
2026-05-07 15:39 48.40453 11.64624 7373 ft 187 kts 346°
2026-05-07 15:39 48.41764 11.64243 7534 ft 194 kts 347°
2026-05-07 15:40 48.43079 11.63858 7817 ft 194 kts 346°
2026-05-07 15:40 48.44415 11.63466 8077 ft 196 kts 346°
2026-05-07 15:40 48.45763 11.63070 8338 ft 197 kts 346°
2026-05-07 15:40 48.47104 11.62674 8597 ft 198 kts 346°
2026-05-07 15:41 48.48447 11.62279 8855 ft 199 kts 345°
2026-05-07 15:41 48.49815 11.61877 9113 ft 200 kts 346°
2026-05-07 15:41 48.51177 11.61474 9368 ft 201 kts 346°
2026-05-07 15:41 48.52555 11.61069 9616 ft 202 kts 346°
2026-05-07 15:42 48.53925 11.60666 9873 ft 202 kts 346°
2026-05-07 15:42 48.55286 11.60267 10256 ft 195 kts 345°
2026-05-07 15:42 48.56631 11.59868 10411 ft 201 kts 345°
2026-05-07 15:42 48.57978 11.59221 10560 ft 204 kts 334°
2026-05-07 15:43 48.59302 11.58436 10726 ft 210 kts 335°
2026-05-07 15:43 48.60697 11.57634 10889 ft 216 kts 336°
2026-05-07 15:43 48.62118 11.56811 11038 ft 222 kts 335°
2026-05-07 15:43 48.63583 11.55962 11168 ft 230 kts 336°
2026-05-07 15:44 48.65132 11.55064 11236 ft 248 kts 336°
2026-05-07 15:44 48.66784 11.54107 11438 ft 261 kts 336°
2026-05-07 15:44 48.68502 11.53114 11726 ft 271 kts 336°
2026-05-07 15:44 48.70313 11.52065 11882 ft 287 kts 336°
2026-05-07 15:45 48.72240 11.50950 12052 ft 303 kts 336°
2026-05-07 15:45 48.74249 11.49785 12214 ft 319 kts 336°
2026-05-07 15:45 48.76384 11.48547 12373 ft 335 kts 336°
2026-05-07 15:45 48.78578 11.47274 12630 ft 346 kts 336°
2026-05-07 15:46 48.83207 11.44583 13114 ft 370 kts 336°
2026-05-07 15:46 48.85654 11.43159 13491 ft 377 kts 336°
2026-05-07 15:46 48.88071 11.41750 14030 ft 378 kts 336°
2026-05-07 15:47 48.90528 11.40316 14496 ft 381 kts 336°
2026-05-07 15:47 48.93027 11.38857 14948 ft 384 kts 336°
2026-05-07 15:47 48.95531 11.37393 15410 ft 387 kts 337°
2026-05-07 15:47 48.98014 11.35939 15878 ft 389 kts 337°
2026-05-07 15:48 49.00543 11.34456 16347 ft 391 kts 336°
2026-05-07 15:48 49.03119 11.32945 16816 ft 393 kts 336°
2026-05-07 15:48 49.05669 11.31447 17257 ft 396 kts 336°
2026-05-07 15:48 49.08233 11.29939 17697 ft 398 kts 336°
2026-05-07 15:49 49.10813 11.28420 18134 ft 400 kts 336°
2026-05-07 15:49 49.13412 11.26889 18567 ft 403 kts 336°
2026-05-07 15:49 49.16027 11.25346 18996 ft 405 kts 336°
2026-05-07 15:49 49.18658 11.23792 19423 ft 407 kts 336°
2026-05-07 15:50 49.21298 11.22282 19830 ft 410 kts 341°
2026-05-07 15:50 49.24118 11.21433 20207 ft 414 kts 348°
2026-05-07 15:50 49.26945 11.20705 20618 ft 416 kts 348°
2026-05-07 15:50 49.29782 11.19968 21005 ft 417 kts 348°
2026-05-07 15:51 49.32677 11.19213 21380 ft 419 kts 348°
2026-05-07 15:51 49.35524 11.18468 21744 ft 421 kts 348°
2026-05-07 15:51 49.38417 11.17710 22107 ft 423 kts 348°
2026-05-07 15:51 49.41304 11.16953 22461 ft 425 kts 348°
2026-05-07 15:52 49.44260 11.16178 22818 ft 427 kts 348°
2026-05-07 15:52 49.47186 11.15408 23165 ft 429 kts 348°
2026-05-07 15:52 49.50090 11.14644 23496 ft 430 kts 348°
2026-05-07 15:52 49.53053 11.13863 23819 ft 432 kts 348°
2026-05-07 15:53 49.56016 11.13081 24138 ft 434 kts 348°
2026-05-07 15:53 49.58975 11.12299 24453 ft 435 kts 348°
2026-05-07 15:53 49.61961 11.11510 24764 ft 437 kts 348°
2026-05-07 15:53 49.64967 11.10714 25064 ft 439 kts 348°
2026-05-07 15:54 49.67977 11.09916 25361 ft 441 kts 348°
2026-05-07 15:54 49.71006 11.09113 25657 ft 443 kts 349°
2026-05-07 15:54 49.74062 11.08301 25950 ft 444 kts 349°
2026-05-07 15:54 49.77119 11.07487 26233 ft 446 kts 349°
2026-05-07 15:55 49.80138 11.06683 26509 ft 448 kts 349°
2026-05-07 15:55 49.83227 11.05859 26791 ft 450 kts 349°
2026-05-07 15:55 49.86298 11.04808 27043 ft 450 kts 340°
2026-05-07 15:55 49.89040 11.02615 27268 ft 450 kts 323°
2026-05-07 15:56 49.91338 10.99306 27528 ft 451 kts 312°
2026-05-07 15:56 49.93493 10.95742 27782 ft 453 kts 313°
2026-05-07 15:56 49.95651 10.92220 28014 ft 455 kts 313°
2026-05-07 15:56 49.97836 10.88667 28247 ft 457 kts 313°
2026-05-07 15:57 50.00023 10.85110 28474 ft 459 kts 314°
2026-05-07 15:57 50.02224 10.81527 28693 ft 460 kts 314°
2026-05-07 15:57 50.04443 10.77912 28908 ft 462 kts 314°
2026-05-07 15:57 50.06668 10.74280 29104 ft 464 kts 314°
2026-05-07 15:58 50.08881 10.70665 29295 ft 467 kts 314°
2026-05-07 15:58 50.11124 10.66998 29489 ft 469 kts 314°
2026-05-07 15:58 50.13380 10.63306 29674 ft 470 kts 314°
2026-05-07 15:58 50.15608 10.59652 29855 ft 472 kts 314°
2026-05-07 15:59 50.17894 10.55896 30033 ft 474 kts 315°
2026-05-07 15:59 50.20126 10.52221 30277 ft 472 kts 315°
2026-05-07 15:59 50.22349 10.48556 31021 ft 458 kts 315°
2026-05-07 15:59 50.24554 10.45009 31539 ft 453 kts 316°
2026-05-07 16:00 50.26759 10.41469 31663 ft 458 kts 316°
2026-05-07 16:00 50.28967 10.37917 31877 ft 460 kts 316°
2026-05-07 16:00 50.31191 10.34335 32086 ft 462 kts 315°
2026-05-07 16:00 50.33447 10.30696 32266 ft 463 kts 315°
2026-05-07 16:01 50.35664 10.27076 32441 ft 464 kts 313°
2026-05-07 16:01 50.37765 10.23307 32601 ft 465 kts 312°
2026-05-07 16:01 50.39910 10.19474 32740 ft 465 kts 312°
2026-05-07 16:01 50.42033 10.15677 32862 ft 466 kts 312°
2026-05-07 16:02 50.44165 10.11859 32979 ft 467 kts 312°
2026-05-07 16:02 50.46318 10.08000 33095 ft 467 kts 311°
2026-05-07 16:02 50.48459 10.04159 33227 ft 467 kts 311°
2026-05-07 16:02 50.50594 10.00320 33335 ft 467 kts 311°
2026-05-07 16:03 50.52736 9.96464 33445 ft 468 kts 311°
2026-05-07 16:03 50.54868 9.92619 33555 ft 468 kts 311°
2026-05-07 16:03 50.56986 9.88796 33668 ft 468 kts 311°
2026-05-07 16:03 50.59114 9.84947 33785 ft 467 kts 311°
2026-05-07 16:04 50.61249 9.81081 33903 ft 467 kts 311°
2026-05-07 16:04 50.63393 9.77192 34020 ft 467 kts 311°
2026-05-07 16:04 50.65516 9.73334 34056 ft 469 kts 311°
2026-05-07 16:05 50.69791 9.65552 34055 ft 473 kts 311°
2026-05-07 16:05 50.73910 9.57537 34041 ft 470 kts 303°
2026-05-07 16:06 50.77492 9.48880 34042 ft 470 kts 303°
2026-05-07 16:06 50.81061 9.40288 34042 ft 469 kts 303°
2026-05-07 16:07 50.84616 9.31704 34044 ft 469 kts 303°
2026-05-07 16:07 50.88193 9.23038 34047 ft 469 kts 303°
2026-05-07 16:08 50.91732 9.14435 34046 ft 469 kts 303°
2026-05-07 16:08 50.95293 9.05751 34045 ft 470 kts 303°
2026-05-07 16:09 50.98826 8.97110 34045 ft 469 kts 303°
2026-05-07 16:09 51.02352 8.88451 34048 ft 468 kts 303°
2026-05-07 16:10 51.05874 8.79776 34049 ft 468 kts 303°
2026-05-07 16:10 51.09399 8.71066 34048 ft 468 kts 303°
2026-05-07 16:11 51.12902 8.62378 34050 ft 468 kts 303°
2026-05-07 16:11 51.16389 8.53703 34041 ft 468 kts 303°
2026-05-07 16:12 51.19884 8.44975 33968 ft 468 kts 303°
2026-05-07 16:12 51.23362 8.36264 33982 ft 467 kts 303°
2026-05-07 16:13 51.25747 8.30274 33278 ft 461 kts 302°
2026-05-07 16:13 51.27403 8.26107 34236 ft 443 kts 302°
2026-05-07 16:13 51.29060 8.21928 33785 ft 459 kts 302°
2026-05-07 16:13 51.30777 8.17593 34067 ft 455 kts 302°
2026-05-07 16:14 51.32473 8.13304 34104 ft 463 kts 302°
2026-05-07 16:14 51.35956 8.04470 34260 ft 475 kts 302°
2026-05-07 16:14 51.37705 8.00022 34115 ft 482 kts 302°
2026-05-07 16:15 51.39494 7.95467 34216 ft 472 kts 302°
2026-05-07 16:15 51.41202 7.91110 34377 ft 472 kts 302°
2026-05-07 16:15 51.42952 7.86638 34302 ft 469 kts 302°
2026-05-07 16:15 51.44650 7.82291 34622 ft 461 kts 302°
2026-05-07 16:16 51.46333 7.77975 33823 ft 462 kts 302°
2026-05-07 16:16 51.47974 7.73759 33787 ft 429 kts 302°
2026-05-07 16:16 51.49534 7.69748 33788 ft 420 kts 302°
2026-05-07 16:16 51.51060 7.65815 33680 ft 414 kts 302°
2026-05-07 16:17 51.52569 7.61921 34040 ft 405 kts 302°
2026-05-07 16:17 51.55561 7.54180 34098 ft 418 kts 302°
2026-05-07 16:18 51.58668 7.46120 34096 ft 433 kts 302°
2026-05-07 16:18 51.61881 7.37758 34090 ft 444 kts 302°
2026-05-07 16:19 51.65148 7.29226 34077 ft 453 kts 301°
2026-05-07 16:19 51.68454 7.20563 34073 ft 460 kts 301°
2026-05-07 16:20 51.71794 7.11783 34075 ft 465 kts 301°
2026-05-07 16:20 51.75177 7.02856 34074 ft 468 kts 301°
2026-05-07 16:21 51.78571 6.93870 34073 ft 471 kts 301°
2026-05-07 16:21 51.81955 6.84881 34070 ft 468 kts 301°
2026-05-07 16:22 51.85281 6.76014 34070 ft 461 kts 301°
2026-05-07 16:22 51.88583 6.67178 34069 ft 461 kts 301°
2026-05-07 16:23 51.91882 6.58319 34067 ft 462 kts 301°
2026-05-07 16:23 51.95174 6.49449 34059 ft 462 kts 301°
2026-05-07 16:24 51.98468 6.40545 34050 ft 462 kts 301°
2026-05-07 16:24 52.01757 6.31622 34050 ft 461 kts 300°
2026-05-07 16:25 52.05047 6.22663 34050 ft 461 kts 300°
2026-05-07 16:25 52.08307 6.13755 34050 ft 462 kts 300°
2026-05-07 16:26 52.11594 6.04744 34047 ft 462 kts 300°
2026-05-07 16:26 52.14848 5.95789 34047 ft 462 kts 300°
2026-05-07 16:27 52.18093 5.86826 34048 ft 461 kts 300°
2026-05-07 16:27 52.21342 5.77822 34049 ft 462 kts 300°
2026-05-07 16:28 52.24593 5.68779 34049 ft 462 kts 300°
2026-05-07 16:28 52.27818 5.59775 34053 ft 462 kts 300°
2026-05-07 16:29 52.31044 5.50739 34058 ft 462 kts 300°
2026-05-07 16:29 52.34277 5.41649 34064 ft 463 kts 300°
2026-05-07 16:30 52.37493 5.32573 34071 ft 463 kts 299°
2026-05-07 16:30 52.40710 5.23463 34073 ft 464 kts 299°
2026-05-07 16:31 52.43907 5.14376 34074 ft 464 kts 299°
2026-05-07 16:31 52.47122 5.05206 34075 ft 465 kts 299°
2026-05-07 16:32 52.50332 4.96013 34075 ft 466 kts 299°
2026-05-07 16:32 52.53534 4.86814 34077 ft 466 kts 299°
2026-05-07 16:33 52.56931 4.77751 34081 ft 466 kts 302°
2026-05-07 16:33 52.60353 4.68730 34081 ft 466 kts 302°
2026-05-07 16:34 52.63759 4.59716 34083 ft 467 kts 302°
2026-05-07 16:34 52.67159 4.50683 34086 ft 467 kts 302°
2026-05-07 16:35 52.70569 4.41594 34090 ft 467 kts 302°
2026-05-07 16:35 52.73955 4.32532 34092 ft 467 kts 301°
2026-05-07 16:36 52.77341 4.23437 34095 ft 467 kts 301°
2026-05-07 16:36 52.80726 4.14315 34098 ft 467 kts 301°
2026-05-07 16:37 52.84111 4.05159 34101 ft 467 kts 301°
2026-05-07 16:37 52.87475 3.96028 34103 ft 468 kts 301°
2026-05-07 16:38 52.90836 3.86870 34106 ft 468 kts 301°
2026-05-07 16:38 52.94206 3.77652 34109 ft 469 kts 301°
2026-05-07 16:39 52.97561 3.68435 34112 ft 469 kts 300°
2026-05-07 16:39 53.00695 3.58971 34117 ft 470 kts 298°
2026-05-07 16:40 53.03825 3.49473 34120 ft 471 kts 298°
2026-05-07 16:40 53.06965 3.39912 34118 ft 471 kts 299°
2026-05-07 16:41 53.09979 3.30297 34101 ft 471 kts 289°
2026-05-07 16:41 53.11503 3.19789 34122 ft 472 kts 282°
2026-05-07 16:42 53.12911 3.09166 34110 ft 471 kts 282°
2026-05-07 16:42 53.14309 2.98549 34106 ft 472 kts 282°
2026-05-07 16:43 53.15701 2.87898 34102 ft 472 kts 282°
2026-05-07 16:43 53.17084 2.77235 34102 ft 472 kts 282°
2026-05-07 16:44 53.18457 2.66575 34102 ft 472 kts 282°
2026-05-07 16:44 53.19821 2.55894 34102 ft 473 kts 282°
2026-05-07 16:45 53.21175 2.45212 34101 ft 473 kts 282°
2026-05-07 16:45 53.22503 2.34658 34100 ft 474 kts 281°
2026-05-07 16:46 53.23844 2.23916 34097 ft 474 kts 281°
2026-05-07 16:46 53.25179 2.13135 34098 ft 475 kts 281°
2026-05-07 16:47 53.26508 2.02322 34100 ft 475 kts 281°
2026-05-07 16:47 53.27816 1.91590 34098 ft 475 kts 281°
2026-05-07 16:48 53.29125 1.80764 34096 ft 475 kts 281°
2026-05-07 16:48 53.30416 1.70004 34094 ft 476 kts 281°
2026-05-07 16:49 53.31700 1.59207 34092 ft 476 kts 281°
2026-05-07 16:49 53.33042 1.48383 34088 ft 476 kts 284°
2026-05-07 16:50 53.34617 1.37687 34088 ft 476 kts 284°
2026-05-07 16:50 53.36174 1.26932 34086 ft 476 kts 283°
2026-05-07 16:51 53.37715 1.16205 34086 ft 476 kts 283°
2026-05-07 16:51 53.39244 1.05492 34081 ft 476 kts 283°
2026-05-07 16:52 53.40765 0.94752 34077 ft 476 kts 283°
2026-05-07 16:52 53.42279 0.83993 34075 ft 476 kts 283°
2026-05-07 16:53 53.43773 0.73292 34074 ft 476 kts 283°
2026-05-07 16:53 53.45271 0.62487 34072 ft 476 kts 283°
2026-05-07 16:54 53.46749 0.51756 34069 ft 476 kts 283°
2026-05-07 16:54 53.48228 0.40933 34063 ft 477 kts 283°
2026-05-07 16:55 53.49700 0.30081 34056 ft 478 kts 282°
2026-05-07 16:55 53.51158 0.19252 34054 ft 478 kts 282°
2026-05-07 16:56 53.52611 0.08384 34053 ft 479 kts 282°
2026-05-07 16:56 53.54773 -0.07944 34049 ft 480 kts 282°
2026-05-07 16:57 53.56206 -0.18865 34045 ft 478 kts 281°
2026-05-07 16:57 53.58365 -0.29314 34046 ft 478 kts 303°
2026-05-07 16:58 53.60494 -0.33528 34068 ft 480 kts 318°
2026-05-07 16:58 53.63206 -0.36803 34074 ft 481 kts 327°
2026-05-07 16:58 53.68744 -0.43069 34046 ft 482 kts 326°
2026-05-07 16:59 53.74276 -0.49452 34047 ft 481 kts 326°
2026-05-07 16:59 53.79759 -0.55809 34047 ft 481 kts 326°
2026-05-07 17:00 53.85272 -0.62223 34047 ft 482 kts 326°
2026-05-07 17:00 53.90763 -0.68631 34046 ft 482 kts 324°
2026-05-07 17:01 53.96301 -0.75115 34043 ft 482 kts 325°
2026-05-07 17:01 54.01769 -0.81613 34035 ft 482 kts 320°
2026-05-07 17:02 54.04052 -0.85685 34038 ft 480 kts 304°
2026-05-07 17:02 54.05902 -0.90434 34071 ft 481 kts 302°
2026-05-07 17:02 54.09563 -0.99892 34039 ft 480 kts 302°
2026-05-07 17:03 54.13219 -1.09379 34030 ft 480 kts 302°
2026-05-07 17:03 54.16850 -1.18836 34025 ft 480 kts 302°
2026-05-07 17:04 54.20491 -1.28357 34021 ft 481 kts 302°
2026-05-07 17:04 54.24139 -1.37932 34018 ft 482 kts 302°
2026-05-07 17:05 54.27774 -1.47511 34019 ft 482 kts 302°
2026-05-07 17:05 54.31388 -1.57069 34019 ft 482 kts 302°
2026-05-07 17:06 54.35022 -1.66717 34018 ft 482 kts 301°
2026-05-07 17:06 54.38617 -1.76301 34018 ft 482 kts 301°
2026-05-07 17:07 54.42247 -1.86014 34017 ft 482 kts 301°
2026-05-07 17:07 54.45845 -1.95679 34018 ft 482 kts 301°
2026-05-07 17:08 54.49422 -2.05328 34018 ft 482 kts 301°
2026-05-07 17:08 54.53012 -2.15047 34017 ft 482 kts 301°
2026-05-07 17:09 54.56598 -2.24793 34014 ft 482 kts 301°
2026-05-07 17:09 54.60163 -2.34522 34009 ft 481 kts 301°
2026-05-07 17:10 54.62997 -2.42356 33939 ft 467 kts 304°
2026-05-07 17:10 54.64744 -2.47101 34173 ft 467 kts 304°
2026-05-07 17:10 54.66476 -2.51848 33965 ft 474 kts 304°
2026-05-07 17:11 54.68208 -2.56621 34150 ft 473 kts 304°
2026-05-07 17:11 54.69967 -2.61469 34067 ft 479 kts 303°
2026-05-07 17:11 54.73512 -2.71271 34031 ft 486 kts 300°
2026-05-07 17:12 54.77101 -2.81262 33960 ft 491 kts 299°
2026-05-07 17:12 54.80683 -2.91278 33965 ft 489 kts 299°
2026-05-07 17:13 54.84215 -3.01182 33965 ft 488 kts 298°
2026-05-07 17:13 54.87764 -3.11173 33963 ft 488 kts 298°
2026-05-07 17:14 54.91308 -3.21189 33963 ft 489 kts 298°
2026-05-07 17:14 54.94852 -3.31249 33960 ft 490 kts 298°
2026-05-07 17:15 54.98381 -3.41307 33961 ft 490 kts 298°
2026-05-07 17:15 55.01924 -3.51447 33959 ft 490 kts 298°
2026-05-07 17:16 55.05445 -3.61562 33959 ft 490 kts 298°
2026-05-07 17:16 55.08944 -3.71655 33950 ft 488 kts 297°
2026-05-07 17:17 55.12439 -3.81783 33936 ft 488 kts 297°
2026-05-07 17:17 55.15915 -3.91897 33931 ft 487 kts 297°
2026-05-07 17:18 55.19397 -4.02070 33921 ft 489 kts 297°
2026-05-07 17:18 55.22869 -4.12256 33915 ft 488 kts 297°
2026-05-07 17:19 55.26307 -4.22385 33917 ft 487 kts 297°
2026-05-07 17:19 55.29733 -4.32523 33922 ft 485 kts 297°
2026-05-07 17:20 55.33157 -4.42694 33924 ft 486 kts 297°
2026-05-07 17:20 55.36580 -4.52908 33925 ft 485 kts 297°
2026-05-07 17:21 55.39981 -4.63091 33921 ft 485 kts 296°
2026-05-07 17:21 55.43358 -4.73254 33920 ft 484 kts 295°
2026-05-07 17:22 55.46738 -4.83466 33924 ft 484 kts 296°
2026-05-07 17:22 55.50103 -4.93676 33917 ft 482 kts 295°
2026-05-07 17:23 55.53445 -5.03862 33903 ft 482 kts 295°
2026-05-07 17:23 55.56773 -5.14048 33898 ft 482 kts 295°
2026-05-07 17:24 55.60113 -5.24307 33891 ft 482 kts 295°
2026-05-07 17:24 55.63421 -5.34518 33892 ft 480 kts 295°
2026-05-07 17:25 55.66729 -5.44770 33888 ft 481 kts 295°
2026-05-07 17:25 55.70014 -5.54990 33885 ft 479 kts 295°
2026-05-07 17:26 55.73284 -5.65215 33888 ft 479 kts 294°
2026-05-07 17:26 55.76549 -5.75465 33893 ft 478 kts 294°
2026-05-07 17:27 55.79802 -5.85718 33895 ft 477 kts 294°
2026-05-07 17:27 55.83024 -5.95922 33893 ft 477 kts 294°
2026-05-07 17:28 55.86253 -6.06188 33896 ft 477 kts 294°
2026-05-07 17:28 55.89473 -6.16474 33890 ft 475 kts 294°
2026-05-07 17:29 55.92651 -6.26668 33894 ft 476 kts 294°
2026-05-07 17:29 55.95842 -6.36947 33890 ft 474 kts 294°
2026-05-07 17:30 55.99017 -6.47217 33892 ft 474 kts 294°
2026-05-07 17:30 56.02184 -6.57504 33888 ft 473 kts 294°
2026-05-07 17:31 56.05335 -6.67789 33869 ft 473 kts 293°
2026-05-07 17:31 56.08464 -6.78043 33875 ft 472 kts 293°
2026-05-07 17:32 56.11583 -6.88311 33865 ft 472 kts 293°
2026-05-07 17:32 56.14174 -6.96878 33873 ft 472 kts 293°
2026-05-07 17:33 56.17816 -7.08967 33870 ft 471 kts 293°
2026-05-07 17:33 56.20903 -7.19261 33861 ft 470 kts 293°
2026-05-07 17:34 56.23972 -7.29545 33846 ft 471 kts 293°
2026-05-07 17:34 56.27053 -7.39912 33849 ft 470 kts 293°
2026-05-07 17:35 56.30116 -7.50260 33838 ft 469 kts 292°
2026-05-07 17:35 56.33171 -7.60632 33831 ft 469 kts 292°
2026-05-07 17:36 56.36212 -7.71004 33834 ft 468 kts 292°
2026-05-07 17:36 56.39240 -7.81374 33834 ft 468 kts 291°
2026-05-07 17:37 56.42243 -7.91706 33829 ft 468 kts 291°
2026-05-07 17:37 56.45257 -8.02122 33822 ft 468 kts 291°
2026-05-07 17:38 56.48253 -8.12519 33820 ft 469 kts 291°
2026-05-07 17:38 56.51244 -8.22948 33818 ft 468 kts 291°
2026-05-07 17:39 56.54209 -8.33338 33813 ft 468 kts 291°
2026-05-07 17:39 56.57166 -8.43739 33810 ft 467 kts 291°
2026-05-07 17:40 56.60121 -8.54180 33807 ft 467 kts 290°
2026-05-07 17:40 56.63074 -8.64665 33801 ft 466 kts 290°
2026-05-07 17:41 56.66007 -8.75128 33805 ft 466 kts 289°
2026-05-07 17:41 56.68912 -8.85531 33793 ft 465 kts 289°
2026-05-07 17:42 56.71821 -8.96007 33808 ft 467 kts 289°
2026-05-07 17:42 56.74720 -9.06485 33796 ft 466 kts 289°
2026-05-07 17:43 56.77623 -9.17029 33784 ft 463 kts 289°
2026-05-07 17:43 56.80477 -9.27445 33792 ft 463 kts 289°
2026-05-07 17:44 56.83320 -9.37861 33779 ft 460 kts 289°
2026-05-07 17:44 56.86160 -9.48321 33766 ft 461 kts 289°
2026-05-07 17:45 56.88989 -9.58792 33763 ft 462 kts 289°
2026-05-07 17:45 56.91814 -9.69285 33758 ft 461 kts 288°
2026-05-07 17:46 56.94635 -9.79818 33764 ft 460 kts 288°
2026-05-07 17:46 56.97421 -9.90269 33773 ft 460 kts 289°
2026-05-07 17:47 57.00222 -10.00770 33749 ft 461 kts 291°
2026-05-07 17:47 57.02873 -10.11290 33740 ft 456 kts 287°
2026-05-07 17:48 57.05481 -10.21793 33756 ft 455 kts 288°
2026-05-07 17:48 57.08131 -10.32429 33741 ft 456 kts 288°
2026-05-07 17:49 57.10758 -10.43015 33726 ft 457 kts 288°
2026-05-07 17:49 57.13374 -10.53605 33731 ft 457 kts 288°
2026-05-07 17:50 57.15993 -10.64258 33740 ft 458 kts 288°
2026-05-07 17:50 57.18592 -10.74883 33745 ft 457 kts 288°
2026-05-07 17:51 57.21193 -10.85564 33692 ft 457 kts 288°
2026-05-07 17:51 57.23779 -10.96239 33697 ft 458 kts 288°
2026-05-07 17:52 57.26348 -11.06894 33685 ft 457 kts 288°
2026-05-07 17:52 57.28911 -11.17581 33696 ft 456 kts 288°
2026-05-07 17:53 57.31464 -11.28277 33687 ft 456 kts 288°
2026-05-07 17:53 57.34007 -11.38982 33684 ft 457 kts 288°
2026-05-07 17:54 57.36543 -11.49711 33676 ft 457 kts 288°
2026-05-07 17:54 57.39059 -11.60408 33721 ft 456 kts 288°
2026-05-07 17:55 57.41587 -11.71211 33706 ft 456 kts 288°
2026-05-07 17:55 57.44085 -11.81940 33708 ft 457 kts 288°
2026-05-07 17:56 57.46590 -11.92755 33702 ft 456 kts 288°
2026-05-07 17:56 57.49067 -12.03505 33710 ft 456 kts 288°
2026-05-07 17:57 57.51147 -12.12575 33700 ft 457 kts 288°
2026-05-07 17:57 57.54020 -12.25161 33717 ft 458 kts 288°
2026-05-07 17:58 57.56488 -12.36032 33719 ft 457 kts 289°
2026-05-07 17:58 57.58948 -12.46919 33708 ft 458 kts 289°
2026-05-07 17:59 57.61401 -12.57840 33732 ft 458 kts 289°
2026-05-07 17:59 57.63834 -12.68729 33711 ft 458 kts 288°
2026-05-07 18:00 57.66268 -12.79673 33726 ft 458 kts 288°
2026-05-07 18:00 57.68698 -12.90661 33720 ft 459 kts 289°
2026-05-07 18:01 57.71112 -13.01635 33739 ft 459 kts 289°
2026-05-07 18:01 57.73529 -13.12680 33727 ft 460 kts 289°
2026-05-07 18:02 57.77122 -13.29204 33756 ft 460 kts 289°
2026-05-07 18:03 57.79528 -13.40344 33764 ft 458 kts 289°
2026-05-07 18:03 57.81903 -13.51406 33780 ft 458 kts 289°
2026-05-07 18:04 57.84271 -13.62491 33779 ft 459 kts 289°
2026-05-07 18:04 57.86617 -13.73523 33796 ft 458 kts 289°
2026-05-07 18:05 57.88963 -13.84625 33800 ft 458 kts 289°
2026-05-07 18:05 57.91301 -13.95749 33808 ft 460 kts 289°
2026-05-07 18:06 57.93629 -14.06887 33802 ft 460 kts 289°
2026-05-07 18:06 57.95947 -14.18036 33806 ft 459 kts 289°
2026-05-07 18:07 57.98260 -14.29222 33822 ft 459 kts 289°
2026-05-07 18:07 58.00566 -14.40437 33820 ft 460 kts 289°
2026-05-07 18:08 58.02848 -14.51598 33812 ft 461 kts 290°
2026-05-07 18:08 58.05133 -14.62834 33818 ft 461 kts 290°
2026-05-07 18:09 58.07419 -14.74138 33824 ft 461 kts 289°
2026-05-07 18:09 58.09687 -14.85417 33824 ft 461 kts 289°
2026-05-07 18:10 58.11940 -14.96691 33823 ft 460 kts 289°
2026-05-07 18:10 58.14178 -15.07946 33838 ft 459 kts 289°
2026-05-07 18:11 58.16412 -15.19253 33846 ft 460 kts 289°
2026-05-07 18:11 58.18631 -15.30544 33847 ft 461 kts 289°
2026-05-07 18:12 58.20854 -15.41920 33849 ft 462 kts 289°
2026-05-07 18:12 58.23069 -15.53319 33855 ft 462 kts 289°
2026-05-07 18:13 58.25272 -15.64725 33862 ft 461 kts 289°
2026-05-07 18:13 58.27473 -15.76191 33872 ft 462 kts 289°
2026-05-07 18:14 58.29639 -15.87537 33872 ft 461 kts 289°
2026-05-07 18:14 58.31809 -15.98974 33869 ft 461 kts 289°
2026-05-07 18:15 58.33979 -16.10478 33873 ft 460 kts 289°
2026-05-07 18:15 58.36123 -16.21915 33891 ft 461 kts 289°
2026-05-07 18:16 58.38254 -16.33348 33895 ft 462 kts 289°
2026-05-07 18:16 58.40394 -16.44897 33900 ft 462 kts 289°
2026-05-07 18:17 58.42521 -16.56449 33907 ft 462 kts 289°
2026-05-07 18:17 58.44627 -16.67957 33921 ft 462 kts 289°
2026-05-07 18:18 58.46723 -16.79476 33924 ft 462 kts 289°
2026-05-07 18:18 58.48819 -16.91068 33933 ft 462 kts 288°
2026-05-07 18:19 58.50896 -17.02628 33935 ft 462 kts 288°
2026-05-07 18:19 58.52968 -17.14237 33941 ft 462 kts 289°
2026-05-07 18:20 58.55029 -17.25855 33954 ft 463 kts 289°
2026-05-07 18:20 58.57080 -17.37482 33959 ft 464 kts 289°
2026-05-07 18:21 58.59119 -17.49118 33967 ft 463 kts 289°
2026-05-07 18:21 58.61156 -17.60814 33965 ft 463 kts 289°
2026-05-07 18:22 58.63170 -17.72452 33976 ft 463 kts 288°
2026-05-07 18:22 58.65185 -17.84182 33975 ft 462 kts 288°
2026-05-07 18:23 58.67182 -17.95870 33980 ft 462 kts 288°
2026-05-07 18:23 58.69156 -18.07500 33988 ft 463 kts 288°
2026-05-07 18:24 58.71140 -18.19271 33994 ft 464 kts 288°
2026-05-07 18:24 58.73114 -18.31052 33998 ft 464 kts 289°
2026-05-07 18:25 58.75073 -18.42821 34003 ft 464 kts 289°
2026-05-07 18:25 58.77014 -18.54569 34018 ft 463 kts 289°
2026-05-07 18:26 58.78947 -18.66340 34020 ft 462 kts 288°
2026-05-07 18:26 58.80859 -18.78062 34035 ft 462 kts 288°
2026-05-07 18:27 58.82772 -18.89870 34038 ft 463 kts 288°
2026-05-07 18:27 58.84668 -19.01643 34049 ft 463 kts 288°
2026-05-07 18:28 58.86571 -19.13551 34052 ft 464 kts 288°
2026-05-07 18:28 58.88454 -19.25406 34057 ft 464 kts 288°
2026-05-07 18:29 58.90321 -19.37248 34065 ft 463 kts 288°
2026-05-07 18:29 58.92176 -19.49099 34067 ft 463 kts 288°
2026-05-07 18:30 58.94029 -19.61008 34071 ft 463 kts 288°
2026-05-07 18:30 58.95865 -19.72905 34078 ft 463 kts 288°
2026-05-07 18:31 58.97691 -19.84814 34084 ft 464 kts 288°
2026-05-07 18:31 58.99510 -19.96753 34086 ft 464 kts 288°
2026-05-07 18:32 59.01986 -20.08215 34104 ft 460 kts 298°
2026-05-07 18:32 59.04842 -20.19319 34087 ft 462 kts 297°
2026-05-07 18:33 59.07629 -20.30463 34092 ft 460 kts 297°
2026-05-07 18:33 59.10396 -20.41612 34095 ft 461 kts 297°
2026-05-07 18:34 59.13164 -20.52830 34101 ft 462 kts 297°
2026-05-07 18:34 59.15924 -20.64067 34104 ft 462 kts 297°
2026-05-07 18:35 59.18670 -20.75311 34108 ft 462 kts 297°
2026-05-07 18:35 59.21413 -20.86598 34108 ft 462 kts 297°
2026-05-07 18:36 59.24139 -20.97872 34109 ft 461 kts 297°
2026-05-07 18:36 59.26849 -21.09142 34112 ft 461 kts 297°
2026-05-07 18:37 59.29548 -21.20419 34116 ft 460 kts 297°
2026-05-07 18:37 59.32244 -21.31749 34117 ft 461 kts 297°
2026-05-07 18:38 59.34936 -21.43119 34118 ft 460 kts 297°
2026-05-07 18:38 59.37601 -21.54434 34117 ft 460 kts 297°
2026-05-07 18:39 59.40263 -21.65794 34124 ft 459 kts 296°
2026-05-07 18:39 59.42903 -21.77118 34126 ft 460 kts 296°
2026-05-07 18:40 59.45554 -21.88558 34128 ft 461 kts 296°
2026-05-07 18:40 59.48185 -21.99965 34131 ft 460 kts 296°
2026-05-07 18:41 59.50801 -22.11372 34127 ft 460 kts 296°
2026-05-07 18:41 59.53406 -22.22792 34144 ft 459 kts 296°
2026-05-07 18:42 59.55997 -22.34208 34144 ft 459 kts 296°
2026-05-07 18:42 59.58585 -22.45671 34148 ft 459 kts 297°
2026-05-07 18:43 59.61160 -22.57147 34151 ft 460 kts 297°
2026-05-07 18:43 59.63732 -22.68665 34157 ft 460 kts 296°
2026-05-07 18:44 59.66291 -22.80188 34163 ft 460 kts 296°
2026-05-07 18:44 59.68847 -22.91759 34163 ft 460 kts 296°
2026-05-07 18:45 59.71375 -23.03272 34171 ft 459 kts 296°
2026-05-07 18:45 59.73902 -23.14849 34172 ft 459 kts 296°
2026-05-07 18:46 59.76410 -23.26396 34173 ft 458 kts 296°
2026-05-07 18:46 59.78908 -23.37957 34175 ft 459 kts 296°
2026-05-07 18:47 59.81411 -23.49611 34180 ft 459 kts 296°
2026-05-07 18:47 59.83899 -23.61256 34180 ft 459 kts 296°
2026-05-07 18:48 59.86373 -23.72906 34182 ft 459 kts 296°
2026-05-07 18:48 59.88842 -23.84594 34186 ft 459 kts 296°
2026-05-07 18:49 59.91285 -23.96229 34185 ft 458 kts 296°
2026-05-07 18:49 59.93752 -24.08043 34192 ft 458 kts 296°
2026-05-07 18:50 59.96180 -24.19739 34381 ft 458 kts 296°
2026-05-07 18:50 59.98571 -24.31331 34182 ft 449 kts 296°
2026-05-07 18:51 60.00925 -24.42791 34261 ft 448 kts 296°
2026-05-07 18:51 60.02108 -24.48577 34155 ft 455 kts 296°
2026-05-07 18:51 60.03297 -24.54409 34194 ft 457 kts 296°
2026-05-07 18:52 60.05692 -24.66212 34191 ft 462 kts 295°
2026-05-07 18:52 60.08097 -24.78138 34194 ft 464 kts 295°
2026-05-07 18:53 60.10477 -24.90011 34190 ft 457 kts 295°
2026-05-07 18:53 60.12821 -25.01763 34205 ft 456 kts 295°
2026-05-07 18:54 60.15148 -25.13502 34220 ft 457 kts 295°
2026-05-07 18:54 60.17487 -25.25380 34226 ft 457 kts 296°
2026-05-07 18:55 60.19799 -25.37182 34227 ft 458 kts 296°
2026-05-07 18:55 60.22102 -25.49014 34229 ft 457 kts 296°
2026-05-07 18:56 60.24403 -25.60905 34229 ft 456 kts 296°
2026-05-07 18:56 60.26671 -25.72691 34235 ft 457 kts 295°
2026-05-07 18:57 60.28945 -25.84591 34241 ft 456 kts 295°
2026-05-07 18:57 60.31199 -25.96446 34242 ft 456 kts 295°
2026-05-07 18:58 60.33448 -26.08353 34247 ft 456 kts 295°
2026-05-07 18:58 60.35692 -26.20303 34249 ft 455 kts 295°
2026-05-07 18:59 60.37920 -26.32245 34256 ft 455 kts 295°
2026-05-07 18:59 60.40123 -26.44125 34258 ft 455 kts 295°
2026-05-07 19:00 60.42323 -26.56062 34257 ft 456 kts 295°
2026-05-07 19:00 60.44514 -26.68027 34261 ft 455 kts 295°
2026-05-07 19:01 60.46692 -26.79994 34266 ft 455 kts 295°
2026-05-07 19:01 60.48856 -26.91953 34271 ft 454 kts 295°
2026-05-07 19:02 60.51018 -27.03988 34277 ft 454 kts 295°
2026-05-07 19:02 60.53162 -27.15988 34282 ft 454 kts 295°
2026-05-07 19:03 60.55280 -27.27926 34282 ft 454 kts 295°
2026-05-07 19:03 60.57405 -27.39975 34282 ft 454 kts 295°
2026-05-07 19:04 60.59511 -27.51993 34286 ft 453 kts 295°
2026-05-07 19:04 60.61616 -27.64082 34285 ft 453 kts 295°